sat.trackr.live / text

‹ back to catalog

FENGYUN 4B

NORAD 48808 · 2021-047A

PAYLOAD ACTIVE UNKNOWN

§ Identity

Operator
Country
PRC
Launch date
2021-06-02
Launch site
XICLF
Launch vehicle
Mass (kg)
RCS (m²)

Purposes: comms

External: N2YO · Heavens-Above · Gunter

§ Orbital elements

Epoch: 2026-09-20T00:18:46.579968Z

Period
1,436.02 min
Inclination
0.3857°
Eccentricity
0.0008231
Mean motion
1.00277329 rev/d
Perigee alt
35,750.3 km
Apogee alt
35,819.7 km
Semi-major
42,163.2 km
B*
0.0000e+0
RAAN
80.9618°
Arg perigee
281.5653°
Mean anomaly
105.7132°
Rev number
1,952

§ Raw data

FENGYUN 4B1 48808U 21047A   26263.01303912 -.00000335  00000+0  00000+0 0  99902 48808   0.3857  80.9618 0008231 281.5653 105.7132  1.00277329 19526

JSON: /api/v1/satellites/48808 · /tle

For live sub-satellite position, see the globe view (requires WebGL).

§ Visibility from observer

Set your observer location to see the next 7 days of passes ≥ 10°. The values pass through the URL so the page stays shareable.

No JS? Fill the form by hand. The geolocation button needs JavaScript.